This demonstration page uses our WeatherBlox Daily Observations layout. Learn more.

Hourly Observations for July 24, 2017

Temp ( °F °C ) Dew Point ( °F °C ) Humidity (%) Winds ( mph kmh ) Pressure ( in mb ) Visibility ( mi km ) Precip ( " mm )
12:53 am 00:53 Clear 69 20.6 69 20.6 100 100 Calm 29.85 1011 9 14.48406 0 0
1:53 am 01:53 Clear with Mist and Fog 68 20 68 20 100 100 Calm 29.85 1011 6 9.65604 0 0
2:12 am 02:12 Clear with Mist and Fog 68 20 68 20 100 100 Calm 29.85 1011 1.75 2.816345 0 0
2:19 am 02:19 Clear with Mist and Fog 68 20 68 20 100 100 Calm 29.85 1011 1.25 2.011675 0 0
2:23 am 02:23 Clear with Mist and Fog 68 20 68 20 100 100 Calm 29.85 1011 4 6.43736 0 0
2:53 am 02:53 Clear with Mist and Fog 67 19.4 67 19.4 100 100 Calm 29.84 1010 6 9.65604 0 0
3:53 am 03:53 Mostly Clear with Mist and Fog 67 19.4 67 19.4 100 100 Calm 29.84 1011 6 9.65604 0 0
4:53 am 04:53 Mostly Cloudy with Mist and Fog 68 20 68 20 100 100 Calm 29.84 1011 6 9.65604 0 0
5:53 am 05:53 Clear 70 21.1 69 20.6 97 97 WSW 5 7 29.85 1011 8 12.87472 0 0
6:53 am 06:53 Sunny with Mist and Fog 70 21.1 70 21.1 100 100 WSW 6 9 29.87 1012 6 9.65604 0 0
7:53 am 07:53 Sunny with Mist and Fog 72 22.2 71 21.7 97 97 W 7 11 29.89 1012 5 8.0467 0 0
8:53 am 08:53 Sunny 75 23.9 69 20.6 82 82 WNW 6 9 29.9 1013 10 16.0934 0 0
9:53 am 09:53 Mostly Sunny 77 25 70 21.1 79 79 WNW 6 9 29.91 1013 10 16.0934 0 0
10:18 am 10:18 Mostly Cloudy 78 25.6 69 20.6 74 74 NNW 6 9 29.94 1014 10 16.0934 0 0
10:31 am 10:31 Partly Cloudy 78 25.6 70 21.1 76 76 NW 5 7 29.94 1014 10 16.0934 0 0
10:41 am 10:41 Mostly Cloudy 80 26.7 70 21.1 71 71 NNW 7 11 29.91 1013 10 16.0934 0 0
10:49 am 10:49 Partly Cloudy 81 27 70 21 70 70 N 5 7 29.91 1013 10 16.0934 0 0
10:53 am 10:53 Partly Cloudy 80 26.7 70 21.1 71 71 NW 6 9 29.92 1013 10 16.0934 0 0
11:13 am 11:13 Mostly Cloudy 80 26.7 70 21.1 71 71 N 8 13 29.91 1013 10 16.0934 0 0
11:33 am 11:33 Partly Cloudy 80 26.7 69 20.6 69 69 NNW 7 11 29.91 1013 10 16.0934 0 0
11:53 am 11:53 Mostly Sunny 81 27.2 69 20.6 67 67 NNW 3 6 29.93 1013 10 16.0934 0 0
12:53 pm 12:53 Partly Cloudy 81 27.2 69 20.6 67 67 NW 6 9 29.93 1014 10 16.0934 0 0
1:53 pm 13:53 Mostly Cloudy 82 27.8 68 20 63 63 NNW 5 7 29.94 1014 10 16.0934 0 0
2:53 pm 14:53 Mostly Cloudy 83 28.3 68 20 61 61 NNW 8 13 29.94 1014 10 16.0934 0 0
3:53 pm 15:53 Mostly Sunny 83 28.3 68 20 61 61 N 6 9 29.94 1014 10 16.0934 0 0
4:53 pm 16:53 Mostly Cloudy 84 28.9 68 20 59 59 N 9 15 29.95 1014 10 16.0934 0 0
5:53 pm 17:53 Mostly Sunny 82 27.8 68 20 63 63 N 7 11 29.96 1014 10 16.0934 0 0
6:53 pm 18:53 Mostly Sunny 81 27.2 67 19.4 62 62 NNE 9 15 29.97 1015 10 16.0934 0 0
7:53 pm 19:53 Sunny 78 25.6 65 18.3 64 64 N 10 17 29.99 1016 10 16.0934 0 0
8:53 pm 20:53 Sunny 75 23.9 65 18.3 71 71 N 8 13 30.01 1016 10 16.0934 0 0
9:53 pm 21:53 Clear 71 21.7 64 17.8 79 79 NNE 5 7 30.04 1017 10 16.0934 0 0
10:53 pm 22:53 Clear 69 20.6 62 16.7 78 78 NNE 6 9 30.06 1018 10 16.0934 0 0
11:53 pm 23:53 Clear 67 19.4 62 16.7 84 84 NNE 5 7 30.08 1019 10 16.0934 0 0

Powered by AerisWeather